﻿測定場所 (Monitoring sites),日付 (Measurement date),時間 (Measurement time),線量率 最大値 (max) μGy/h,線量率 最小値 (min) μGy/h,線量率 平均値 (average) μGy/h,
調布 (Chofu),2013-04-07,23:01～24:00,0.0365,0.0326,0.0341,
調布 (Chofu),2013-04-07,22:01～23:00,0.0363,0.0316,0.0340,
調布 (Chofu),2013-04-07,21:01～22:00,0.0357,0.0324,0.0342,
調布 (Chofu),2013-04-07,20:01～21:00,0.0363,0.0316,0.0339,
調布 (Chofu),2013-04-07,19:01～20:00,0.0354,0.0316,0.0336,
調布 (Chofu),2013-04-07,18:01～19:00,0.0360,0.0318,0.0337,
調布 (Chofu),2013-04-07,17:01～18:00,0.0360,0.0319,0.0336,
調布 (Chofu),2013-04-07,16:01～17:00,0.0344,0.0308,0.0330,
調布 (Chofu),2013-04-07,15:01～16:00,0.0356,0.0308,0.0332,
調布 (Chofu),2013-04-07,14:01～15:00,0.0360,0.0314,0.0330,
調布 (Chofu),2013-04-07,13:01～14:00,0.0346,0.0318,0.0333,
調布 (Chofu),2013-04-07,12:01～13:00,0.0349,0.0313,0.0334,
調布 (Chofu),2013-04-07,11:01～12:00,0.0353,0.0315,0.0334,
調布 (Chofu),2013-04-07,10:01～11:00,0.0355,0.0305,0.0332,
調布 (Chofu),2013-04-07,09:01～10:00,0.0353,0.0314,0.0333,
調布 (Chofu),2013-04-07,08:01～09:00,0.0356,0.0307,0.0331,
調布 (Chofu),2013-04-07,07:01～08:00,0.0348,0.0303,0.0328,
調布 (Chofu),2013-04-07,06:01～07:00,0.0357,0.0312,0.0330,
調布 (Chofu),2013-04-07,05:01～06:00,0.0351,0.0309,0.0329,
調布 (Chofu),2013-04-07,04:01～05:00,0.0355,0.0315,0.0332,
調布 (Chofu),2013-04-07,03:01～04:00,0.0383,0.0311,0.0348,
調布 (Chofu),2013-04-07,02:01～03:00,0.0465,0.0351,0.0396,
調布 (Chofu),2013-04-07,01:01～02:00,0.0535,0.0426,0.0492,
調布 (Chofu),2013-04-07,00:01～01:00,0.0528,0.0452,0.0489,
調布 (Chofu),2013-04-06,23:01～24:00,0.0509,0.0390,0.0439,
調布 (Chofu),2013-04-06,22:01～23:00,0.0440,0.0373,0.0406,
調布 (Chofu),2013-04-06,21:01～22:00,0.0449,0.0372,0.0413,
調布 (Chofu),2013-04-06,20:01～21:00,0.0472,0.0391,0.0433,
調布 (Chofu),2013-04-06,19:01～20:00,0.0489,0.0414,0.0441,
調布 (Chofu),2013-04-06,18:01～19:00,0.0478,0.0401,0.0444,
調布 (Chofu),2013-04-06,17:01～18:00,0.0455,0.0370,0.0424,
調布 (Chofu),2013-04-06,16:01～17:00,0.0435,0.0370,0.0399,
調布 (Chofu),2013-04-06,15:01～16:00,0.0405,0.0334,0.0371,
調布 (Chofu),2013-04-06,14:01～15:00,0.0362,0.0316,0.0337,
調布 (Chofu),2013-04-06,13:01～14:00,0.0361,0.0314,0.0333,
調布 (Chofu),2013-04-06,12:01～13:00,0.0350,0.0310,0.0331,
調布 (Chofu),2013-04-06,11:01～12:00,0.0362,0.0313,0.0334,
調布 (Chofu),2013-04-06,10:01～11:00,0.0353,0.0315,0.0334,
調布 (Chofu),2013-04-06,09:01～10:00,0.0356,0.0306,0.0332,
調布 (Chofu),2013-04-06,08:01～09:00,0.0354,0.0310,0.0337,
調布 (Chofu),2013-04-06,07:01～08:00,0.0367,0.0327,0.0343,
調布 (Chofu),2013-04-06,06:01～07:00,0.0363,0.0321,0.0342,
調布 (Chofu),2013-04-06,05:01～06:00,0.0363,0.0323,0.0343,
調布 (Chofu),2013-04-06,04:01～05:00,0.0363,0.0313,0.0340,
調布 (Chofu),2013-04-06,03:01～04:00,0.0353,0.0320,0.0338,
調布 (Chofu),2013-04-06,02:01～03:00,0.0357,0.0312,0.0339,
調布 (Chofu),2013-04-06,01:01～02:00,0.0360,0.0316,0.0338,
調布 (Chofu),2013-04-06,00:01～01:00,0.0356,0.0322,0.0336,
調布 (Chofu),2013-04-05,23:01～24:00,0.0354,0.0317,0.0335,
調布 (Chofu),2013-04-05,22:01～23:00,0.0355,0.0315,0.0334,
調布 (Chofu),2013-04-05,21:01～22:00,0.0349,0.0298,0.0331,
調布 (Chofu),2013-04-05,20:01～21:00,0.0359,0.0311,0.0332,
調布 (Chofu),2013-04-05,19:01～20:00,0.0352,0.0309,0.0332,
調布 (Chofu),2013-04-05,18:01～19:00,0.0351,0.0312,0.0333,
調布 (Chofu),2013-04-05,17:01～18:00,0.0362,0.0314,0.0332,
調布 (Chofu),2013-04-05,16:01～17:00,0.0348,0.0307,0.0332,
調布 (Chofu),2013-04-05,15:01～16:00,0.0350,0.0317,0.0332,
調布 (Chofu),2013-04-05,14:01～15:00,0.0347,0.0309,0.0328,
調布 (Chofu),2013-04-05,13:01～14:00,0.0349,0.0311,0.0331,
調布 (Chofu),2013-04-05,12:01～13:00,0.0354,0.0317,0.0334,
調布 (Chofu),2013-04-05,11:01～12:00,0.0351,0.0311,0.0334,
調布 (Chofu),2013-04-05,10:01～11:00,0.0362,0.0313,0.0335,
調布 (Chofu),2013-04-05,09:01～10:00,0.0358,0.0314,0.0335,
調布 (Chofu),2013-04-05,08:01～09:00,0.0364,0.0309,0.0338,
調布 (Chofu),2013-04-05,07:01～08:00,0.0357,0.0317,0.0336,
調布 (Chofu),2013-04-05,06:01～07:00,0.0359,0.0311,0.0335,
調布 (Chofu),2013-04-05,05:01～06:00,0.0354,0.0318,0.0337,
調布 (Chofu),2013-04-05,04:01～05:00,0.0358,0.0316,0.0336,
調布 (Chofu),2013-04-05,03:01～04:00,0.0351,0.0321,0.0336,
調布 (Chofu),2013-04-05,02:01～03:00,0.0366,0.0318,0.0337,
調布 (Chofu),2013-04-05,01:01～02:00,0.0355,0.0310,0.0331,
調布 (Chofu),2013-04-05,00:01～01:00,0.0356,0.0318,0.0336,
調布 (Chofu),2013-04-04,23:01～24:00,0.0358,0.0313,0.0333,
調布 (Chofu),2013-04-04,22:01～23:00,0.0347,0.0306,0.0331,
調布 (Chofu),2013-04-04,21:01～22:00,0.0349,0.0310,0.0331,
調布 (Chofu),2013-04-04,20:01～21:00,0.0344,0.0312,0.0330,
調布 (Chofu),2013-04-04,19:01～20:00,0.0349,0.0307,0.0330,
調布 (Chofu),2013-04-04,18:01～19:00,0.0347,0.0309,0.0328,
調布 (Chofu),2013-04-04,17:01～18:00,0.0351,0.0316,0.0332,
調布 (Chofu),2013-04-04,16:01～17:00,0.0349,0.0310,0.0326,
調布 (Chofu),2013-04-04,15:01～16:00,0.0347,0.0307,0.0327,
調布 (Chofu),2013-04-04,14:01～15:00,0.0360,0.0313,0.0330,
調布 (Chofu),2013-04-04,13:01～14:00,0.0348,0.0307,0.0329,
調布 (Chofu),2013-04-04,12:01～13:00,0.0351,0.0313,0.0330,
調布 (Chofu),2013-04-04,11:01～12:00,0.0348,0.0313,0.0332,
調布 (Chofu),2013-04-04,10:01～11:00,0.0349,0.0310,0.0331,
調布 (Chofu),2013-04-04,09:01～10:00,0.0362,0.0311,0.0332,
調布 (Chofu),2013-04-04,08:01～09:00,0.0360,0.0312,0.0336,
調布 (Chofu),2013-04-04,07:01～08:00,0.0360,0.0316,0.0335,
調布 (Chofu),2013-04-04,06:01～07:00,0.0361,0.0319,0.0335,
調布 (Chofu),2013-04-04,05:01～06:00,0.0361,0.0316,0.0335,
調布 (Chofu),2013-04-04,04:01～05:00,0.0359,0.0314,0.0336,
調布 (Chofu),2013-04-04,03:01～04:00,0.0353,0.0314,0.0335,
調布 (Chofu),2013-04-04,02:01～03:00,0.0358,0.0308,0.0331,
調布 (Chofu),2013-04-04,01:01～02:00,0.0351,0.0313,0.0330,
調布 (Chofu),2013-04-04,00:01～01:00,0.0350,0.0316,0.0332,
調布 (Chofu),2013-04-03,23:01～24:00,0.0344,0.0309,0.0329,
調布 (Chofu),2013-04-03,22:01～23:00,0.0349,0.0315,0.0329,
調布 (Chofu),2013-04-03,21:01～22:00,0.0346,0.0304,0.0328,
調布 (Chofu),2013-04-03,20:01～21:00,0.0353,0.0309,0.0330,
調布 (Chofu),2013-04-03,19:01～20:00,0.0348,0.0312,0.0329,
調布 (Chofu),2013-04-03,18:01～19:00,0.0355,0.0313,0.0332,
調布 (Chofu),2013-04-03,17:01～18:00,0.0356,0.0319,0.0335,
調布 (Chofu),2013-04-03,16:01～17:00,0.0354,0.0313,0.0336,
調布 (Chofu),2013-04-03,15:01～16:00,0.0375,0.0327,0.0349,
調布 (Chofu),2013-04-03,14:01～15:00,0.0452,0.0331,0.0391,
調布 (Chofu),2013-04-03,13:01～14:00,0.0460,0.0398,0.0430,
調布 (Chofu),2013-04-03,12:01～13:00,0.0490,0.0410,0.0446,
調布 (Chofu),2013-04-03,11:01～12:00,0.0491,0.0403,0.0449,
調布 (Chofu),2013-04-03,10:01～11:00,0.0489,0.0405,0.0441,
調布 (Chofu),2013-04-03,09:01～10:00,0.0475,0.0402,0.0442,
調布 (Chofu),2013-04-03,08:01～09:00,0.0475,0.0418,0.0443,
調布 (Chofu),2013-04-03,07:01～08:00,0.0491,0.0413,0.0450,
調布 (Chofu),2013-04-03,06:01～07:00,0.0485,0.0428,0.0454,
調布 (Chofu),2013-04-03,05:01～06:00,0.0478,0.0384,0.0424,
調布 (Chofu),2013-04-03,04:01～05:00,0.0424,0.0368,0.0396,
調布 (Chofu),2013-04-03,03:01～04:00,0.0429,0.0346,0.0380,
調布 (Chofu),2013-04-03,02:01～03:00,0.0400,0.0340,0.0366,
調布 (Chofu),2013-04-03,01:01～02:00,0.0449,0.0368,0.0411,
調布 (Chofu),2013-04-03,00:01～01:00,0.0503,0.0410,0.0452,
調布 (Chofu),2013-04-02,23:01～24:00,0.0516,0.0440,0.0472,
調布 (Chofu),2013-04-02,22:01～23:00,0.0551,0.0439,0.0485,
調布 (Chofu),2013-04-02,21:01～22:00,0.0568,0.0496,0.0526,
調布 (Chofu),2013-04-02,20:01～21:00,0.0550,0.0467,0.0518,
調布 (Chofu),2013-04-02,19:01～20:00,0.0515,0.0432,0.0472,
調布 (Chofu),2013-04-02,18:01～19:00,0.0461,0.0401,0.0432,
調布 (Chofu),2013-04-02,17:01～18:00,0.0440,0.0367,0.0401,
調布 (Chofu),2013-04-02,16:01～17:00,0.0416,0.0353,0.0373,
調布 (Chofu),2013-04-02,15:01～16:00,0.0439,0.0364,0.0402,
調布 (Chofu),2013-04-02,14:01～15:00,0.0458,0.0381,0.0418,
調布 (Chofu),2013-04-02,13:01～14:00,0.0450,0.0371,0.0413,
調布 (Chofu),2013-04-02,12:01～13:00,0.0476,0.0402,0.0430,
調布 (Chofu),2013-04-02,11:01～12:00,0.0481,0.0412,0.0442,
調布 (Chofu),2013-04-02,10:01～11:00,0.0505,0.0427,0.0461,
調布 (Chofu),2013-04-02,09:01～10:00,0.0499,0.0436,0.0474,
調布 (Chofu),2013-04-02,08:01～09:00,0.0539,0.0467,0.0499,
調布 (Chofu),2013-04-02,07:01～08:00,0.0571,0.0481,0.0523,
調布 (Chofu),2013-04-02,06:01～07:00,0.0569,0.0486,0.0531,
調布 (Chofu),2013-04-02,05:01～06:00,0.0569,0.0459,0.0501,
調布 (Chofu),2013-04-02,04:01～05:00,0.0505,0.0419,0.0460,
調布 (Chofu),2013-04-02,03:01～04:00,0.0503,0.0421,0.0465,
調布 (Chofu),2013-04-02,02:01～03:00,0.0482,0.0416,0.0450,
調布 (Chofu),2013-04-02,01:01～02:00,0.0460,0.0359,0.0402,
調布 (Chofu),2013-04-02,00:01～01:00,0.0409,0.0336,0.0364,
調布 (Chofu),2013-04-01,23:01～24:00,0.0360,0.0316,0.0342,
調布 (Chofu),2013-04-01,22:01～23:00,0.0364,0.0325,0.0341,
調布 (Chofu),2013-04-01,21:01～22:00,0.0359,0.0322,0.0339,
調布 (Chofu),2013-04-01,20:01～21:00,0.0356,0.0324,0.0340,
調布 (Chofu),2013-04-01,19:01～20:00,0.0363,0.0319,0.0339,
調布 (Chofu),2013-04-01,18:01～19:00,0.0360,0.0320,0.0338,
調布 (Chofu),2013-04-01,17:01～18:00,0.0358,0.0326,0.0341,
調布 (Chofu),2013-04-01,16:01～17:00,0.0363,0.0319,0.0340,
調布 (Chofu),2013-04-01,15:01～16:00,0.0366,0.0315,0.0341,
調布 (Chofu),2013-04-01,14:01～15:00,0.0365,0.0323,0.0341,
調布 (Chofu),2013-04-01,13:01～14:00,0.0358,0.0328,0.0344,
調布 (Chofu),2013-04-01,12:01～13:00,0.0360,0.0322,0.0342,
調布 (Chofu),2013-04-01,11:01～12:00,0.0364,0.0322,0.0344,
調布 (Chofu),2013-04-01,10:01～11:00,0.0362,0.0323,0.0344,
調布 (Chofu),2013-04-01,09:01～10:00,0.0363,0.0325,0.0346,
調布 (Chofu),2013-04-01,08:01～09:00,0.0362,0.0328,0.0346,
調布 (Chofu),2013-04-01,07:01～08:00,0.0363,0.0325,0.0347,
調布 (Chofu),2013-04-01,06:01～07:00,0.0370,0.0326,0.0347,
調布 (Chofu),2013-04-01,05:01～06:00,0.0362,0.0321,0.0344,
調布 (Chofu),2013-04-01,04:01～05:00,0.0370,0.0321,0.0344,
調布 (Chofu),2013-04-01,03:01～04:00,0.0364,0.0321,0.0343,
調布 (Chofu),2013-04-01,02:01～03:00,0.0366,0.0329,0.0347,
調布 (Chofu),2013-04-01,01:01～02:00,0.0368,0.0325,0.0344,
調布 (Chofu),2013-04-01,00:01～01:00,0.0357,0.0321,0.0343,
